TimeEDT,TemperatureF,Dew PointF,Humidity,Sea Level PressureIn,VisibilityMPH,Wind Direction,Wind SpeedMPH,Gust SpeedMPH,PrecipitationIn,Events,Conditions,WindDirDegrees,DateUTC
12:16 AM,44.8,29.3,55,29.86,10.0,WSW,6.9,-,N/A,,Scattered Clouds,250,2012-10-05 04:16:00
12:36 AM,43.2,29.3,58,29.86,10.0,WSW,6.9,-,N/A,,Clear,240,2012-10-05 04:36:00
12:56 AM,43.0,28.9,58,29.87,10.0,SW,10.4,-,N/A,,Clear,230,2012-10-05 04:56:00
1:16 AM,42.8,28.4,57,29.87,10.0,SW,10.4,-,N/A,,Clear,230,2012-10-05 05:16:00
1:36 AM,42.8,27.9,56,29.87,10.0,WSW,13.8,20.7,N/A,,Clear,250,2012-10-05 05:36:00
1:56 AM,42.3,27.9,57,29.86,10.0,SW,9.2,-,N/A,,Scattered Clouds,230,2012-10-05 05:56:00
2:15 AM,41.7,28.0,58,29.87,10.0,SW,10.4,-,N/A,,Scattered Clouds,220,2012-10-05 06:15:00
2:36 AM,41.9,27.5,57,29.87,10.0,WSW,12.7,-,N/A,,Clear,250,2012-10-05 06:36:00
2:56 AM,41.0,27.5,59,29.87,10.0,SSW,6.9,-,N/A,,Scattered Clouds,210,2012-10-05 06:56:00
3:15 AM,41.2,27.9,59,29.87,10.0,SW,11.5,-,N/A,,Mostly Cloudy,230,2012-10-05 07:15:00
3:36 AM,41.2,27.5,58,29.86,10.0,WSW,11.5,-,N/A,,Overcast,240,2012-10-05 07:36:00
3:56 AM,41.0,26.6,57,29.85,10.0,SW,10.4,19.6,N/A,,Mostly Cloudy,230,2012-10-05 07:56:00
4:16 AM,41.0,26.4,56,29.86,10.0,WSW,11.5,-,N/A,,Overcast,250,2012-10-05 08:16:00
4:36 AM,40.5,26.6,58,29.86,10.0,SW,9.2,16.1,N/A,,Overcast,220,2012-10-05 08:36:00
4:56 AM,40.1,27.0,59,29.86,10.0,SW,11.5,-,N/A,,Overcast,230,2012-10-05 08:56:00
5:16 AM,40.1,26.6,59,29.86,10.0,WSW,18.4,-,N/A,,Overcast,240,2012-10-05 09:16:00
5:36 AM,40.1,26.4,58,29.87,10.0,WSW,12.7,-,N/A,,Overcast,240,2012-10-05 09:36:00
5:56 AM,40.1,26.1,57,29.87,10.0,WSW,19.6,24.2,N/A,,Overcast,240,2012-10-05 09:56:00
6:50 AM,39.2,24.8,56,29.85,10.0,WSW,12.7,23.0,N/A,,Overcast,250,2012-10-05 10:50:00
7:50 AM,41.0,24.8,53,29.86,10.0,SW,13.8,19.6,N/A,,Overcast,230,2012-10-05 11:50:00
8:50 AM,41.0,24.8,53,29.85,10.0,West,17.3,28.8,N/A,,Overcast,260,2012-10-05 12:50:00
8:55 AM,41.0,24.8,53,29.85,10.0,West,17.3,28.8,N/A,,Overcast,260,2012-10-05 12:55:00
9:50 AM,41.0,26.6,57,29.85,10.0,WSW,11.5,23.0,N/A,,Overcast,250,2012-10-05 13:50:00
10:50 AM,41.0,24.8,53,29.86,10.0,WSW,19.6,24.2,N/A,,Overcast,250,2012-10-05 14:50:00
11:55 AM,41.0,24.8,53,29.86,10.0,WSW,16.1,27.6,N/A,,Overcast,250,2012-10-05 15:55:00
12:55 PM,42.8,24.8,49,29.86,10.0,West,13.8,24.2,N/A,,Overcast,260,2012-10-05 16:55:00
1:50 PM,42.8,24.8,49,29.87,10.0,West,21.9,27.6,N/A,,Overcast,260,2012-10-05 17:50:00
2:50 PM,42.8,23.0,46,29.84,10.0,West,16.1,24.2,N/A,,Overcast,260,2012-10-05 18:50:00
3:55 PM,42.8,23.0,46,29.84,10.0,WSW,17.3,25.3,N/A,,Overcast,250,2012-10-05 19:55:00
4:50 PM,42.8,23.0,46,29.85,10.0,West,19.6,25.3,N/A,,Overcast,260,2012-10-05 20:50:00
5:55 PM,41.0,23.0,49,29.86,10.0,West,11.5,20.7,N/A,,Overcast,270,2012-10-05 21:55:00
6:55 PM,41.0,21.2,45,29.87,10.0,WSW,16.1,-,N/A,,Overcast,250,2012-10-05 22:55:00
7:50 PM,41.0,23.0,49,29.86,10.0,West,16.1,23.0,N/A,,Overcast,260,2012-10-05 23:50:00
8:55 PM,39.2,23.0,52,29.85,10.0,West,12.7,19.6,N/A,,Overcast,270,2012-10-06 00:55:00
9:50 PM,39.2,24.8,56,29.85,10.0,West,12.7,-,N/A,,Overcast,260,2012-10-06 01:50:00
10:16 PM,39.2,25.5,58,29.84,10.0,West,15.0,21.9,N/A,,Overcast,260,2012-10-06 02:16:00
10:36 PM,38.8,25.5,59,29.84,10.0,West,10.4,-,N/A,,Overcast,260,2012-10-06 02:36:00
10:56 PM,38.7,25.5,59,29.84,10.0,West,10.4,-,N/A,,Overcast,260,2012-10-06 02:56:00
11:16 PM,38.7,26.2,61,29.83,10.0,West,13.8,24.2,N/A,,Overcast,260,2012-10-06 03:16:00
11:36 PM,38.5,27.0,63,29.83,10.0,West,10.4,13.8,N/A,,Overcast,260,2012-10-06 03:36:00
11:56 PM,38.5,27.1,64,29.83,10.0,West,11.5,20.7,N/A,,Scattered Clouds,260,2012-10-06 03:56:00